Flag for Kazakhstan Weather past 2 weeks in Almaty, Kazakhstan

Now
32 °F

Ice fog.


Feels Like: 26 °F
Forecast: 41 / 72 °F
Wind: 6 mph from Southwest

Location: Almaty Airport


UV Index: 5 (Moderate)

Visibility: 3 mi


Pressure: 30.09 "Hg

Humidity: 87%

Dew point: 28 °F

Location of AlmatyLocation

Historic Weather in Almaty

°F

Almaty temperature yesterday

Maximum temperature yesterday: 50 °F (at 5:00 PM)
Minimum temperature yesterday: 32 °F (at 3:30 AM)
Average temperature yesterday: 39 °F

Past Weeks' High & Low Weather Summary

 TemperatureHumidityPressure
High73 °F (Apr 10, 2:00 PM)100% (Apr 11, 10:00 AM)30.54 "Hg (Apr 11, 10:00 AM)
Low25 °F (Apr 15, 4:30 AM)13% (Apr 9, 3:30 PM)29.74 "Hg (Apr 10, 1:30 PM)
Average49 °F59%30.14 "Hg
* Reported Apr 9 4:00 AM — Apr 24 4:00 AM, Almaty, Weather by CustomWeather, © 2014

Note: Actual official high and low records may vary slightly from our data, if they occured in-between our weather recording intervals... More about our weather records

Advertising

Historic Weather Conditions — Data for Previous 24 hours

 ConditionsComfort  
Time TempWeatherWind HumidityBarometerVisibility
4:00 AM
Apr 24
32 °FIce fog.6 mph87%30.09 "Hg2 mi
3:30 AM34 °FFog.3 mph87%30.09 "Hg2 mi
3:00 AM32 °FIce fog.3 mph93%30.12 "Hg2 mi
2:30 AM32 °FIce fog.3 mph93%30.12 "Hg1 mi
2:00 AM32 °FIce fog.1 mph93%30.15 "Hg1 mi
1:30 AM32 °FIce fog.1 mph87%30.15 "Hg2 mi
1:00 AM34 °FFog.1 mph87%30.18 "Hg2 mi
12:30 AM34 °FFog.3 mph87%30.18 "Hg2 mi
12:00 AM36 °FFog.3 mph87%30.18 "Hg2 mi
11:30 PM
Apr 23
36 °FFog.No wind81%30.21 "Hg1 mi
11:00 PM36 °FFog.3 mph75%30.21 "Hg1 mi
10:30 PM37 °FClear.3 mph60%30.24 "Hg1 mi
10:00 PM37 °FClear.3 mph60%30.27 "Hg1 mi
9:30 PM39 °FClear.3 mph56%30.27 "Hg1 mi
9:00 PM39 °FClear.3 mph56%30.30 "Hg2 mi
8:30 PM43 °FClear.3 mph31%30.30 "HgN/A
8:00 PM43 °FClear.3 mph31%30.30 "HgN/A
7:30 PM45 °FClear.6 mph29%30.30 "HgN/A
7:00 PM46 °FClear.6 mph32%30.30 "HgN/A
6:30 PM48 °FClear.8 mph29%30.30 "HgN/A
6:00 PM48 °FClear.8 mph34%30.30 "HgN/A
5:30 PM48 °FClear.6 mph34%30.33 "HgN/A
5:00 PM50 °FClear.6 mph32%30.33 "HgN/A
4:30 PM48 °FClear.8 mph37%30.36 "HgN/A
4:00 PM48 °FClear.3 mph37%30.36 "HgN/A
3:30 PM48 °FPassing clouds.6 mph37%30.39 "HgN/A
3:00 PM46 °FPassing clouds.6 mph40%30.39 "HgN/A
2:30 PM45 °FScattered clouds.6 mph42%30.42 "HgN/A
2:00 PM45 °FScattered clouds.6 mph49%30.42 "HgN/A
1:30 PM43 °FScattered clouds.3 mph49%30.45 "HgN/A
1:00 PM43 °FScattered clouds.3 mph57%30.45 "HgN/A
12:30 PM43 °FScattered clouds.6 mph53%30.48 "HgN/A
12:00 PM39 °FBroken clouds.6 mph61%30.48 "HgN/A
11:30 AM39 °FBroken clouds.6 mph65%30.51 "HgN/A
11:00 AM39 °FBroken clouds.3 mph61%30.51 "HgN/A
10:30 AM37 °FBroken clouds.6 mph65%30.51 "HgN/A
10:00 AM36 °FPartly sunny.3 mph65%30.54 "HgN/A
9:30 AM34 °FMostly cloudy.6 mph65%30.54 "HgN/A
9:00 AM34 °FMostly cloudy.6 mph65%30.54 "HgN/A
8:30 AM32 °FMostly cloudy.3 mph69%30.54 "HgN/A
8:00 AM32 °FMostly cloudy.3 mph69%30.54 "HgN/A
7:30 AM32 °FMostly cloudy.6 mph69%30.54 "HgN/A
7:00 AM32 °FMostly cloudy.6 mph75%30.54 "HgN/A
6:30 AM32 °FMostly cloudy.6 mph75%30.54 "HgN/A
6:00 AM32 °FOvercast.6 mph80%30.54 "HgN/A
5:30 AM32 °FOvercast.6 mph87%30.51 "HgN/A
5:00 AM32 °FOvercast.6 mph80%30.51 "HgN/A
Weather by CustomWeather, © 2014

See weather overview